FW7203 Weather Reports


time (UTC)temp
C
wind
direction
speed
KPH
gust
KPH
rain 1hr
cm
rain 24hr
cm
rain mn
cm
humidity
%
barometer
mb
20260504192029 25 171 11.3 20.9 0.00 0.00 0.00 69 1014.7
20260504191549 26 184 4.8 19.3 0.00 0.00 0.00 68 1014.7
20260504191026 25 175 6.4 22.5 0.00 0.00 0.00 68 1014.9
20260504190532 25 156 12.9 25.7 0.00 0.00 0.00 68 1015.0
20260504190108 25 194 8.0 25.7 0.00 0.00 0.00 68 1015.0
20260504185532 25 165 6.4 25.7 0.00 0.00 0.00 67 1015.0
20260504185031 25 275 9.7 19.3 0.00 0.00 0.00 69 1014.9
20260504184555 25 151 8.0 19.3 0.00 0.00 0.00 69 1015.0
20260504184027 25 181 4.8 19.3 0.00 0.00 0.00 70 1015.0
20260504183530 25 150 12.9 24.1 0.00 0.00 0.00 69 1015.1
20260504183044 25 194 9.7 25.7 0.00 0.00 0.00 69 1015.2
20260504182527 25 155 9.7 25.7 0.00 0.00 0.00 69 1015.3
20260504182027 25 171 12.9 25.7 0.00 0.00 0.00 68 1015.3
20260504181553 26 184 4.8 14.5 0.00 0.00 0.00 72 1015.5
20260504181026 25 165 4.8 20.9 0.00 0.00 0.00 72 1015.6
20260504180526 25 179 6.4 20.9 0.00 0.00 0.00 69 1015.5
20260504180122 25 154 11.3 22.5 0.00 0.00 0.00 69 1015.7
20260504175527 25 190 12.9 22.5 0.00 0.00 0.00 69 1015.6
20260504175026 25 156 4.8 17.7 0.00 0.00 0.00 69 1015.7
20260504174549 24 172 8.0 17.7 0.00 0.00 0.00 69 1015.8
20260504174026 24 198 9.7 19.3 0.00 0.00 0.00 69 1015.9
20260504173526 25 170 8.0 19.3 0.00 0.00 0.00 68 1016.0
20260504173053 25 149 8.0 17.7 0.00 0.00 0.00 70 1016.0
20260504172526 25 155 6.4 20.9 0.00 0.00 0.00 70 1015.9
20260504172027 25 152 11.3 20.9 0.00 0.00 0.00 70 1016.1
20260504171546 25 123 8.0 22.5 0.00 0.00 0.00 70 1016.2
20260504171027 25 192 9.7 22.5 0.00 0.00 0.00 68 1016.1
20260504170526 25 148 6.4 19.3 0.00 0.00 0.00 69 1016.1
20260504151028 24 167 9.7 19.3 0.00 0.00 0.00 72 1016.7
20260504150527 23 143 4.8 20.9 0.00 0.00 0.00 72 1016.8
20260504141027 22 148 3.2 8.0 0.00 0.00 0.00 79 1016.5
20260504140526 22 167 3.2 11.3 0.00 0.00 0.00 80 1016.4
20260504130530 15 0 0.0 0.0 0.00 0.00 0.00 98 1016.7
20260504120109 12 0 0.0 0.0 0.00 0.00 0.00 97 1016.4
20260504110529 12 0 0.0 0.0 0.00 0.00 0.00 97 1016.4
20260504100528 12 0 0.0 0.0 0.00 0.00 0.00 96 1016.4
20260504081543 13 0 0.0 0.0 0.00 0.00 0.00 95 1017.2
20260504081031 13 0 0.0 0.0 0.00 0.00 0.00 95 1017.5
20260504080528 13 0 0.0 0.0 0.00 0.00 0.00 95 1017.4
20260504050529 13 0 0.0 0.0 0.00 0.00 0.00 92 1019.2
20260504050105 13 0 0.0 0.0 0.00 0.00 0.00 92 1019.2
20260504045528 13 0 0.0 0.0 0.00 0.00 0.00 92 1019.2
20260504045026 13 0 0.0 0.0 0.00 0.00 0.00 92 1019.3
20260504044545 13 0 0.0 0.0 0.00 0.00 0.00 91 1019.4
20260504044026 13 0 0.0 0.0 0.00 0.00 0.00 91 1019.4
20260504043529 13 0 0.0 0.0 0.00 0.00 0.00 91 1019.4
20260504043045 13 0 0.0 0.0 0.00 0.00 0.00 90 1019.3
20260504042530 13 0 0.0 0.0 0.00 0.00 0.00 90 1019.4
20260504042025 13 0 0.0 0.0 0.00 0.00 0.00 90 1019.4
20260504041543 14 0 0.0 0.0 0.00 0.00 0.00 89 1019.3
20260504041029 14 0 0.0 0.0 0.00 0.00 0.00 89 1019.2
20260504040533 14 0 0.0 0.0 0.00 0.00 0.00 89 1019.2
20260504040046 14 0 0.0 0.0 0.00 0.00 0.00 89 1019.3
20260504035529 14 0 0.0 0.0 0.00 0.00 0.00 89 1019.3
20260504035029 14 0 0.0 0.0 0.00 0.00 0.00 88 1019.4
20260504034549 14 0 0.0 0.0 0.00 0.00 0.00 88 1019.3
20260504034030 14 0 0.0 0.0 0.00 0.00 0.00 87 1019.3
20260504033534 15 0 0.0 0.0 0.00 0.00 0.00 87 1019.2
20260504033046 15 0 0.0 0.0 0.00 0.00 0.00 87 1019.4
20260504032528 15 0 0.0 0.0 0.00 0.00 0.00 87 1019.4
20260504032028 15 0 0.0 0.0 0.00 0.00 0.00 86 1019.4
20260504031558 15 0 0.0 0.0 0.00 0.00 0.00 86 1019.2
20260504031031 15 0 0.0 0.0 0.00 0.00 0.00 85 1019.2
20260504030526 15 0 0.0 0.0 0.00 0.00 0.00 85 1019.2
20260504030046 15 0 0.0 0.0 0.00 0.00 0.00 85 1019.2
20260504025534 15 0 0.0 0.0 0.00 0.00 0.00 85 1019.2
20260504025025 15 0 0.0 0.0 0.00 0.00 0.00 84 1019.2
20260504024543 16 0 0.0 0.0 0.00 0.00 0.00 83 1019.2
20260504024029 16 0 0.0 0.0 0.00 0.00 0.00 83 1019.2
20260504023526 16 0 0.0 0.0 0.00 0.00 0.00 83 1019.2
20260504023043 16 0 0.0 0.0 0.00 0.00 0.00 82 1019.1
20260504022528 16 0 0.0 0.0 0.00 0.00 0.00 82 1019.2
20260504022028 16 0 0.0 0.0 0.00 0.00 0.00 81 1019.1
20260504021542 17 0 0.0 0.0 0.00 0.00 0.00 81 1019.1
20260504021029 17 0 0.0 0.0 0.00 0.00 0.00 80 1019.1
20260504020526 17 0 0.0 0.0 0.00 0.00 0.00 78 1019.2
20260504020047 17 0 0.0 0.0 0.00 0.00 0.00 77 1019.0
20260504015526 17 0 0.0 0.0 0.00 0.00 0.00 77 1019.1
20260504015025 17 0 0.0 0.0 0.00 0.00 0.00 76 1019.1
20260504014546 17 0 0.0 0.0 0.00 0.00 0.00 75 1019.0
20260504014026 18 0 0.0 0.0 0.00 0.00 0.00 74 1019.1
20260504013526 18 0 0.0 0.0 0.00 0.00 0.00 75 1019.2
20260504013042 18 0 0.0 0.0 0.00 0.00 0.00 73 1019.2
20260504012526 18 0 0.0 0.0 0.00 0.00 0.00 73 1018.9
20260504012026 19 0 0.0 3.2 0.00 0.00 0.00 72 1019.0
20260504011550 19 0 0.0 3.2 0.00 0.00 0.00 71 1018.8
20260504011027 19 178 0.0 1.6 0.00 0.00 0.00 68 1018.9
20260504010530 20 0 0.0 1.6 0.00 0.00 0.00 66 1019.0
20260504010045 20 0 0.0 1.6 0.00 0.00 0.00 65 1019.0
20260504005525 20 184 1.6 4.8 0.00 0.00 0.00 64 1018.9
20260504005028 20 360 1.6 4.8 0.00 0.00 0.00 63 1018.9
20260504004541 20 360 1.6 4.8 0.00 0.00 0.00 62 1019.0
20260504004029 20 186 1.6 3.2 0.00 0.00 0.00 62 1019.0
20260504003526 21 360 1.6 3.2 0.00 0.00 0.00 62 1018.9
20260504003049 21 360 1.6 4.8 0.00 0.00 0.00 59 1018.8
20260504002526 21 184 3.2 8.0 0.00 0.00 0.00 59 1018.8
20260504002028 21 360 3.2 8.0 0.00 0.00 0.00 58 1018.9
20260504001601 21 360 1.6 6.4 0.00 0.00 0.00 57 1018.9
20260504001026 21 360 1.6 4.8 0.00 0.00 0.00 57 1019.1
20260504000525 22 360 1.6 9.7 0.00 0.00 0.00 56 1019.0
20260504000045 22 360 4.8 9.7 0.00 0.00 0.00 55 1018.9
20260503235529 22 360 1.6 8.0 0.00 0.00 0.00 56 1019.1
20260503235026 22 213 1.6 9.7 0.00 0.00 0.00 55 1019.2
20260503234545 22 221 4.8 9.7 0.00 0.00 0.00 55 1019.1
20260503234028 22 360 3.2 8.0 0.00 0.00 0.00 55 1019.3
20260503233526 22 207 4.8 9.7 0.00 0.00 0.00 54 1019.2
20260503233044 22 189 1.6 12.9 0.00 0.00 0.00 53 1019.3
20260503232527 22 178 3.2 14.5 0.00 0.00 0.00 54 1019.3
20260503232026 22 170 6.4 14.5 0.00 0.00 0.00 53 1019.3
20260503231548 22 173 4.8 14.5 0.00 0.00 0.00 52 1019.4
20260503231025 22 165 6.4 14.5 0.00 0.00 0.00 51 1019.4
20260503230529 23 171 6.4 14.5 0.00 0.00 0.00 52 1019.4
20260503230041 23 161 4.8 12.9 0.00 0.00 0.00 52 1019.5
20260503225531 23 150 4.8 12.9 0.00 0.00 0.00 52 1019.4
20260503225028 23 160 8.0 12.9 0.00 0.00 0.00 51 1019.4
20260503224548 23 169 4.8 16.1 0.00 0.00 0.00 52 1019.6
20260503224029 23 182 6.4 16.1 0.00 0.00 0.00 51 1019.7
20260503223527 23 360 6.4 20.9 0.00 0.00 0.00 51 1019.8
20260503223047 23 150 6.4 20.9 0.00 0.00 0.00 49 1019.9
20260503222525 23 172 6.4 20.9 0.00 0.00 0.00 51 1019.9
20260503222025 23 173 4.8 12.9 0.00 0.00 0.00 51 1019.7
20260503221545 23 160 6.4 12.9 0.00 0.00 0.00 50 1019.7
20260503221026 23 223 3.2 12.9 0.00 0.00 0.00 49 1019.6
20260503220529 23 162 3.2 11.3 0.00 0.00 0.00 50 1019.8
20260503220047 23 167 3.2 14.5 0.00 0.00 0.00 50 1019.7
20260503215526 23 150 3.2 16.1 0.00 0.00 0.00 51 1019.9
20260503215025 23 166 6.4 16.1 0.00 0.00 0.00 49 1020.0
20260503214550 23 166 4.8 12.9 0.00 0.00 0.00 48 1020.0
20260503214025 23 165 4.8 14.5 0.00 0.00 0.00 48 1020.0
20260503213525 23 166 9.7 14.5 0.00 0.00 0.00 49 1020.0
20260503213102 23 174 4.8 12.9 0.00 0.00 0.00 50 1020.2
20260503212525 23 169 8.0 14.5 0.00 0.00 0.00 48 1020.3
20260503212025 23 163 4.8 17.7 0.00 0.00 0.00 49 1020.2
20260503211600 23 155 3.2 17.7 0.00 0.00 0.00 49 1020.4
20260503211028 24 172 8.0 17.7 0.00 0.00 0.00 47 1020.5
20260503210529 23 0 0.0 16.1 0.00 0.00 0.00 53 1020.5
20260503210045 23 165 9.7 16.1 0.00 0.00 0.00 48 1020.5
20260503205526 24 152 6.4 14.5 0.00 0.00 0.00 48 1020.5
20260503205029 24 150 3.2 11.3 0.00 0.00 0.00 46 1020.6
20260503204558 24 138 1.6 14.5 0.00 0.00 0.00 52 1020.7
20260503204026 23 178 4.8 14.5 0.00 0.00 0.00 47 1020.8
20260503203525 25 165 4.8 14.5 0.00 0.00 0.00 46 1020.9
20260503203042 25 133 1.6 11.3 0.00 0.00 0.00 48 1021.0
20260503202526 25 140 1.6 9.7 0.00 0.00 0.00 45 1021.1
20260503202026 25 62 1.6 17.7 0.00 0.00 0.00 47 1021.2
20260503201545 24 41 4.8 17.7 0.00 0.00 0.00 48 1021.3
20260503201025 25 167 3.2 8.0 0.00 0.00 0.00 47 1021.3
20260503200525 25 128 1.6 17.7 0.00 0.00 0.00 45 1021.4
20260503200044 24 167 6.4 17.7 0.00 0.00 0.00 47 1021.5
20260503195525 25 171 3.2 16.1 0.00 0.00 0.00 46 1021.5
20260503195025 25 182 1.6 11.3 0.00 0.00 0.00 52 1021.5
20260503194541 24 187 6.4 11.3 0.00 0.00 0.00 47 1021.5
20260503194025 25 169 0.0 9.7 0.00 0.00 0.00 43 1021.5
20260503193525 25 162 1.6 9.7 0.00 0.00 0.00 46 1021.6
20260503193045 25 146 4.8 8.0 0.00 0.00 0.00 47 1021.8
20260503192525 25 111 0.0 3.2 0.00 0.00 0.00 41 1021.8